This is the latest recevied weather packets stored in our database for station/object KQ7A. If no packets are shown the sender has not sent any weather packets the latest 10 day(s).
| Time | Temp. | Humidity | Pressure | Rain* | Wind** | Luminosity | Snow |
|---|---|---|---|---|---|---|---|
| 1788446916 | 12.22° C | 49% | 1016.9 hPa | 0 mm | - | 45 W/m² | - |
| 1788446611 | 12.78° C | 46% | 1017.1 hPa | 0 mm | - | 46 W/m² | - |
| 1788446306 | 13.33° C | 44% | 1016.8 hPa | 0 mm | - | 47 W/m² | - |
| 1788446003 | 12.78° C | 44% | 1016.9 hPa | 0 mm | - | 55 W/m² | - |
| 1788445699 | 11.67° C | 47% | 1016.8 hPa | 0 mm | - | 57 W/m² | - |
| 1788445395 | 9.44° C | 50% | 1017 hPa | 0 mm | - | 44 W/m² | - |
| 1788445090 | 9.44° C | 55% | 1016.8 hPa | 0 mm | - | 42 W/m² | - |
| 1788444786 | 8.33° C | 55% | 1017 hPa | 0 mm | - | 38 W/m² | - |
| 1788444486 | 7.78° C | 57% | 1016.8 hPa | 0 mm | - | 33 W/m² | - |
| 1788444180 | 8.33° C | 57% | 1016.7 hPa | 0 mm | - | 26 W/m² | - |
| 1788443876 | 7.78° C | 56% | 1016.8 hPa | 0 mm | - | 19 W/m² | - |
| 1788443572 | 7.78° C | 59% | 1016.7 hPa | 0 mm | - | 14 W/m² | - |
| 1788443270 | 7.78° C | 55% | 1017 hPa | 0 mm | - | 12 W/m² | - |
| 1788442967 | 7.78° C | 56% | 1016.8 hPa | 0 mm | - | 8 W/m² | - |
| 1788442663 | 7.78° C | 57% | 1016.7 hPa | 0 mm | - | 5 W/m² | - |
| 1788442360 | 8.33° C | 54% | 1016.8 hPa | 0 mm | - | 2 W/m² | - |
| 1788442060 | 8.89° C | 51% | 1016.6 hPa | 0 mm | - | 0 W/m² | - |
| 1788441755 | 8.89° C | 47% | 1016.4 hPa | 0 mm | - | 0 W/m² | - |
| 1788441450 | 8.89° C | 50% | 1016.6 hPa | 0 mm | - | 0 W/m² | - |
| 1788441145 | 8.33° C | 49% | 1016.6 hPa | 0 mm | - | 0 W/m² | - |
| 1788440845 | 7.78° C | 52% | 1016.8 hPa | 0 mm | - | 0 W/m² | - |
| 1788440540 | 8.89° C | 50% | 1016.6 hPa | 0 mm | - | 0 W/m² | - |
| 1788440238 | 7.78° C | 53% | 1016.9 hPa | 0 mm | - | 0 W/m² | - |
| 1788439934 | 8.33° C | 51% | 1016.7 hPa | 0 mm | - | 0 W/m² | - |
| 1788439633 | 8.33° C | 53% | 1016.9 hPa | 0 mm | - | 0 W/m² | - |
* Rain latest hour (hover to see other rain measurements)
** Current wind speed in m/s (hover to see current wind gust speed)